Flag for Kosovo Weather past 2 weeks in Uroševac, Kosovo

Now
48 °F

Passing clouds.


Feels Like: 47 °F
Forecast: 37 / 45 °F
Wind: 3 mph from Southeast

Location: Skopje-Petrovec

Current Time: Mar 4, 2015 at 9:28:01 PM

Latest Report: Mar 4, 2015 at 9:00 PM


Visibility: N/A

Pressure: 30.15 "Hg

Humidity: 43%

Dew point: 27 °F

Location of UroševacLocation

Historic Weather in Uroševac — Graph

°F

Uroševac temperature yesterday

Maximum temperature yesterday: 55 °F (at 1:00 PM)
Minimum temperature yesterday: 39 °F (at 11:00 PM)
Average temperature yesterday: 48 °F

Past Weeks' High & Low Weather Summary

 TemperatureHumidityPressure
High63 °F (Mar 2, 3:30 PM)100% (Feb 23, 7:30 AM)30.63 "Hg (Feb 23, 7:30 AM)
Low16 °F (Feb 18, 6:00 AM)15% (Feb 20, 12:30 PM)29.59 "Hg (Feb 24, 4:00 PM)
Average44 °F68%30.05 "Hg
* Reported Feb 17 8:00 PM — Mar 4 8:30 PM, Uroševac, Weather by CustomWeather, © 2015

Note: Actual official high and low records may vary slightly from our data, if they occured in-between our weather recording intervals... More about our weather records

Advertising

Uroševac weather history for previous 24 hours

 ConditionsComfort  
Time TempWeatherWind HumidityBarometerVisibility
8:30 PM
Wed, Mar 4
48 °FClear.3 mph43%30.15 "Hg10 mi
8:00 PM48 °FClear.3 mph43%30.15 "Hg10 mi
7:30 PM48 °FClear.5 mph40%30.18 "Hg10 mi
7:00 PM48 °FClear.6 mph37%30.18 "Hg10 mi
6:30 PM50 °FClear.6 mph37%30.18 "Hg10 mi
6:00 PM52 °FClear.8 mph32%30.15 "Hg10 mi
5:30 PM54 °FClear.1 mph30%30.18 "Hg10 mi
5:00 PM55 °FSunny.2 mph28%30.15 "Hg10 mi
4:30 PM55 °FSunny.6 mph24%30.15 "Hg10 mi
4:00 PM55 °FPassing clouds.6 mph23%30.18 "HgN/A
3:30 PM55 °FPassing clouds.5 mph23%30.18 "HgN/A
3:00 PM57 °FPassing clouds.5 mph23%30.18 "HgN/A
2:30 PM57 °FSunny.2 mph25%30.21 "Hg10 mi
2:00 PM55 °FSunny.1 mph24%30.21 "Hg10 mi
1:30 PM55 °FSunny.1 mph23%30.24 "Hg10 mi
1:00 PM54 °FSunny.3 mph28%30.24 "Hg10 mi
12:30 PM52 °FSunny.2 mph32%30.27 "Hg10 mi
12:00 PM50 °FSunny.1 mph35%30.30 "Hg10 mi
11:30 AM50 °FSunny.1 mph37%30.30 "Hg10 mi
11:00 AM48 °FSunny.1 mph40%30.33 "Hg10 mi
10:30 AM46 °FSunny.2 mph50%30.36 "Hg10 mi
10:00 AM43 °FSunny.1 mph61%30.36 "Hg10 mi
9:30 AM41 °FSunny.No wind61%30.39 "Hg10 mi
9:00 AM39 °FSunny.No wind65%30.39 "Hg10 mi
8:30 AM37 °FSunny.2 mph70%30.39 "Hg10 mi
8:00 AM36 °FSunny.No wind75%30.39 "Hg10 mi
7:30 AM30 °FSunny.3 mph86%30.39 "Hg10 mi
7:00 AM30 °FSunny.No wind80%30.39 "Hg10 mi
6:30 AM27 °FSunny.No wind86%30.39 "Hg10 mi
6:00 AM25 °FClear.No wind86%30.39 "Hg10 mi
5:30 AM27 °FClear.No wind86%30.39 "Hg10 mi
5:00 AM28 °FClear.No wind86%30.39 "Hg10 mi
4:00 AM30 °FClear.No wind80%30.39 "Hg10 mi
3:30 AM30 °FClear.No wind80%30.39 "Hg10 mi
3:00 AM34 °FClear.7 mph75%30.39 "Hg10 mi
2:30 AM34 °FClear.7 mph75%30.39 "Hg10 mi
2:00 AM32 °FClear.No wind80%30.36 "Hg10 mi
1:30 AM32 °FClear.No wind80%30.36 "Hg10 mi
1:00 AM36 °FClear.No wind81%30.36 "Hg10 mi
12:30 AM37 °FPassing clouds.No wind65%30.36 "HgN/A
12:00 AM37 °FPassing clouds.No wind65%30.36 "HgN/A
11:30 PM
Tue, Mar 3
39 °FPassing clouds.7 mph61%30.36 "HgN/A
11:00 PM39 °FPassing clouds.9 mph61%30.36 "HgN/A
10:00 PM43 °FPassing clouds.9 mph53%30.36 "HgN/A
9:30 PM43 °FPassing clouds.10 mph57%30.33 "HgN/A
9:00 PM43 °FClear.14 mph61%30.33 "Hg10 mi
Weather by CustomWeather, © 2015

See weather overviewHow to use our weather pages